QPF
0.01 0.01 0.01 0.01 0.01 0.01 0.01 0.01 0.01 0.01 0.00 0.00 0.01 0.01 0.01 0.02 0.02 0.04 0.07 0.09 0.09 0.11 0.11 0.11 0.12 0.12 0.10 0.09 0.11 0.10 0.10 0.12 0.11 0.09 0.10 0.09 0.06 0.04 0.03 0.03 0.03 0.05 0.06
0.02 0.01 0.01 0.01 0.01 0.01 0.02 0.02 0.02 0.03 0.02 0.01 0.01 0.01 0.01 0.02 0.02 0.02 0.03 0.05 0.05 0.05 0.07 0.08 0.10 0.12 0.10 0.08 0.09 0.09 0.13 0.13 0.11 0.08 0.07 0.06 0.04 0.03 0.03 0.04 0.06 0.07 0.07
0.02 0.02 0.01 0.01 0.01 0.01 0.02 0.03 0.03 0.02 0.01 0.01 0.01 0.01 0.01 0.02 0.02 0.02 0.03 0.03 0.04 0.05 0.05 0.06 0.07 0.10 0.10 0.08 0.08 0.11 0.17 0.14 0.09 0.06 0.05 0.05 0.04 0.03 0.02 0.04 0.07 0.11 0.12
0.02 0.01 0.01 0.01 0.01 0.02 0.03 0.04 0.03 0.01 0.00 0.00 0.01 0.01 0.02 0.02 0.02 0.02 0.03 0.03 0.03 0.04 0.05 0.05 0.06 0.08 0.11 0.12 0.13 0.14 0.14 0.11 0.07 0.06 0.05 0.04 0.04 0.03 0.03 0.03 0.06 0.08 0.08
0.01 0.01 0.01 0.01 0.02 0.03 0.04 0.04 0.03 0.01 0.00 0.01 0.02 0.02 0.02 0.03 0.03 0.03 0.04 0.03 0.03 0.03 0.03 0.05 0.06 0.08 0.14 0.17 0.17 0.16 0.16 0.11 0.07 0.05 0.04 0.03 0.03 0.02 0.02 0.03 0.03 0.03 0.03
0.01 0.02 0.02 0.01 0.01 0.02 0.04 0.04 0.03 0.02 0.01 0.01 0.02 0.02 0.02 0.02 0.02 0.02 0.03 0.04 0.03 0.03 0.02 0.02 0.03 0.06 0.17 0.22 0.18 0.15 0.13 0.12 0.08 0.06 0.06 0.05 0.03 0.02 0.01 0.02 0.02 0.03 0.03
0.01 0.01 0.02 0.01 0.01 0.02 0.03 0.05 0.04 0.03 0.03 0.02 0.01 0.01 0.01 0.02 0.03 0.02 0.02 0.02 0.02 0.02 0.03 0.02 0.02 0.02 0.08 0.15 0.15 0.12 0.11 0.10 0.08 0.07 0.07 0.06 0.04 0.03 0.02 0.02 0.03 0.03 0.04
0.01 0.01 0.01 0.01 0.01 0.02 0.03 0.04 0.03 0.03 0.03 0.03 0.02 0.01 0.01 0.02 0.02 0.02 0.01 0.01 0.01 0.02 0.02 0.02 0.03 0.03 0.04 0.04 0.08 0.08 0.09 0.08 0.08 0.07 0.07 0.06 0.04 0.03 0.03 0.04 0.05 0.05 0.03
0.01 0.01 0.01 0.01 0.01 0.01 0.03 0.04 0.04 0.03 0.02 0.01 0.01 0.01 0.01 0.02 0.02 0.02 0.01 0.01 0.01 0.02 0.02 0.02 0.02 0.03 0.04 0.03 0.03 0.04 0.03 0.04 0.06 0.07 0.07 0.06 0.04 0.03 0.03 0.05 0.07 0.06 0.05
0.01 0.01 0.01 0.01 0.01 0.01 0.03 0.04 0.05 0.03 0.01 0.01 0.01 0.01 0.01 0.00 0.01 0.01 0.01 0.01 0.01 0.01 0.02 0.02 0.01 0.02 0.02 0.02 0.03 0.02 0.02 0.02 0.04 0.05 0.05 0.05 0.05 0.05 0.05 0.06 0.06 0.07 0.05
0.01 0.01 0.01 0.01 0.01 0.02 0.03 0.04 0.05 0.03 0.02 0.01 0.01 0.01 0.00 0.00 0.00 0.01 0.01 0.01 0.01 0.01 0.01 0.01 0.01 0.01 0.01 0.01 0.02 0.02 0.02 0.02 0.03 0.05 0.06 0.07 0.08 0.10 0.09 0.08 0.07 0.06 0.07
0.01 0.01 0.02 0.02 0.02 0.02 0.04 0.05 0.06 0.04 0.02 0.01 0.01 0.01 0.01 0.01 0.00 0.00 0.00 0.00 0.01 0.01 0.01 0.01 0.01 0.01 0.01 0.01 0.02 0.03 0.03 0.02 0.02 0.03 0.03 0.05 0.08 0.11 0.11 0.08 0.07 0.07 0.06
0.01 0.01 0.02 0.03 0.02 0.02 0.04 0.07 0.06 0.04 0.02 0.01 0.01 0.01 0.01 0.01 0.01 0.00 0.00 0.00 0.00 0.00 0.01 0.01 0.01 0.01 0.00 0.01 0.01 0.02 0.03 0.03 0.02 0.02 0.02 0.03 0.06 0.07 0.08 0.08 0.08 0.08 0.08
0.00 0.00 0.01 0.02 0.03 0.03 0.04 0.06 0.06 0.03 0.02 0.01 0.01 0.02 0.02 0.02 0.02 0.01 0.01 0.01 0.01 0.01 0.01 0.01 0.01 0.01 0.01 0.01 0.00 0.00 0.01 0.02 0.03 0.02 0.02 0.02 0.03 0.05 0.06 0.09 0.10 0.09 0.09
0.00 0.00 0.01 0.01 0.02 0.03 0.03 0.04 0.04 0.02 0.01 0.02 0.02 0.02 0.02 0.02 0.02 0.02 0.02 0.01 0.01 0.01 0.01 0.01 0.01 0.01 0.01 0.01 0.01 0.00 0.00 0.01 0.02 0.01 0.01 0.01 0.02 0.04 0.04 0.07 0.12 0.12 0.10
0.00 0.00 0.01 0.01 0.02 0.02 0.03 0.03 0.02 0.01 0.00 0.01 0.01 0.01 0.01 0.01 0.02 0.02 0.02 0.02 0.02 0.01 0.01 0.01 0.02 0.03 0.03 0.03 0.02 0.01 0.01 0.01 0.01 0.01 0.01 0.02 0.02 0.04 0.03 0.04 0.08 0.14 0.13
0.00 0.00 0.01 0.02 0.03 0.02 0.02 0.02 0.02 0.01 0.01 0.01 0.01 0.01 0.01 0.01 0.01 0.01 0.02 0.02 0.02 0.02 0.02 0.03 0.05 0.06 0.05 0.04 0.03 0.02 0.01 0.01 0.01 0.01 0.01 0.03 0.03 0.04 0.04 0.04 0.07 0.11 0.12
0.00 0.00 0.00 0.01 0.02 0.02 0.01 0.01 0.01 0.01 0.01 0.01 0.01 0.01 0.00 0.01 0.01 0.01 0.01 0.01 0.02 0.02 0.02 0.04 0.06 0.06 0.05 0.05 0.04 0.03 0.01 0.01 0.00 0.01 0.01 0.04 0.06 0.05 0.05 0.05 0.07 0.10 0.10
0.00 0.00 0.00 0.01 0.02 0.02 0.02 0.01 0.01 0.01 0.01 0.01 0.01 0.01 0.01 0.00 0.00 0.01 0.01 0.01 0.02 0.02 0.03 0.06 0.08 0.07 0.06 0.05 0.05 0.04 0.02 0.02 0.01 0.01 0.01 0.02 0.04 0.04 0.04 0.05 0.07 0.08 0.07
0.01 0.01 0.01 0.01 0.02 0.02 0.02 0.01 0.01 0.01 0.01 0.01 0.00 0.00 0.01 0.01 0.01 0.00 0.01 0.01 0.02 0.03 0.05 0.07 0.08 0.06 0.05 0.04 0.03 0.03 0.02 0.02 0.02 0.01 0.01 0.01 0.02 0.04 0.04 0.05 0.07 0.06 0.06
0.01 0.01 0.01 0.02 0.02 0.02 0.01 0.01 0.00 0.01 0.01 0.01 0.00 0.00 0.00 0.01 0.01 0.01 0.01 0.01 0.02 0.02 0.05 0.07 0.06 0.06 0.05 0.04 0.03 0.02 0.02 0.02 0.02 0.02 0.02 0.02 0.03 0.04 0.04 0.06 0.07 0.07 0.05
0.01 0.01 0.01 0.02 0.02 0.02 0.01 0.01 0.01 0.01 0.01 0.01 0.01 0.00 0.01 0.01 0.01 0.01 0.02 0.02 0.02 0.02 0.03 0.04 0.05 0.06 0.06 0.05 0.03 0.02 0.02 0.02 0.02 0.02 0.02 0.03 0.04 0.05 0.04 0.07 0.07 0.08 0.07
0.00 0.00 0.01 0.03 0.02 0.02 0.01 0.01 0.01 0.01 0.00 0.01 0.00 0.00 0.00 0.01 0.01 0.01 0.01 0.01 0.02 0.02 0.03 0.04 0.04 0.05 0.05 0.05 0.03 0.02 0.01 0.01 0.02 0.01 0.01 0.02 0.04 0.06 0.05 0.07 0.08 0.07 0.08
0.00 0.00 0.01 0.03 0.02 0.01 0.02 0.02 0.02 0.02 0.01 0.01 0.01 0.00 0.00 0.00 0.01 0.01 0.01 0.01 0.02 0.02 0.03 0.04 0.04 0.04 0.05 0.04 0.03 0.02 0.02 0.01 0.01 0.01 0.01 0.02 0.03 0.05 0.06 0.05 0.06 0.07 0.07
0.00 0.00 0.01 0.02 0.02 0.01 0.02 0.02 0.03 0.02 0.03 0.02 0.01 0.01 0.00 0.01 0.01 0.01 0.01 0.01 0.02 0.02 0.03 0.04 0.04 0.04 0.04 0.04 0.03 0.02 0.02 0.02 0.02 0.01 0.01 0.02 0.03 0.04 0.05 0.05 0.04 0.05 0.08
0.01 0.00 0.01 0.02 0.01 0.01 0.02 0.02 0.02 0.01 0.01 0.02 0.03 0.02 0.02 0.01 0.02 0.02 0.01 0.01 0.01 0.02 0.02 0.02 0.02 0.03 0.03 0.04 0.04 0.03 0.02 0.02 0.02 0.02 0.01 0.02 0.02 0.03 0.06 0.06 0.04 0.04 0.05
MSLP
1017.11 1017.24 1017.31 1017.33 1017.34 1017.35 1017.40 1017.50 1017.65 1017.83 1018.01 1018.18 1018.31 1018.39 1018.44 1018.46 1018.47 1018.49 1018.52 1018.58 1018.65 1018.72 1018.80 1018.86 1018.90 1018.92 1018.94 1018.95 1018.96 1018.98 1018.99 1019.01 1019.03 1019.05 1019.07 1019.09 1019.11 1019.13 1019.15 1019.17 1019.19 1019.21 1019.23
1017.15 1017.30 1017.40 1017.46 1017.52 1017.59 1017.70 1017.86 1018.06 1018.28 1018.50 1018.69 1018.83 1018.92 1018.96 1018.96 1018.94 1018.93 1018.94 1018.97 1019.03 1019.11 1019.20 1019.27 1019.34 1019.38 1019.40 1019.40 1019.39 1019.37 1019.34 1019.31 1019.28 1019.25 1019.22 1019.19 1019.17 1019.15 1019.14 1019.13 1019.12 1019.12 1019.12
1017.14 1017.30 1017.43 1017.54 1017.66 1017.80 1017.98 1018.20 1018.45 1018.72 1018.98 1019.20 1019.36 1019.45 1019.49 1019.47 1019.43 1019.39 1019.37 1019.38 1019.42 1019.48 1019.57 1019.66 1019.73 1019.79 1019.81 1019.80 1019.77 1019.71 1019.64 1019.56 1019.47 1019.38 1019.29 1019.21 1019.14 1019.09 1019.04 1019.00 1018.97 1018.95 1018.95
1017.10 1017.28 1017.44 1017.60 1017.78 1017.99 1018.23 1018.51 1018.81 1019.12 1019.41 1019.65 1019.83 1019.94 1019.97 1019.95 1019.89 1019.83 1019.77 1019.74 1019.75 1019.80 1019.87 1019.96 1020.04 1020.10 1020.13 1020.12 1020.07 1019.99 1019.87 1019.73 1019.58 1019.43 1019.28 1019.15 1019.03 1018.94 1018.86 1018.80 1018.76 1018.74 1018.73
1017.07 1017.27 1017.47 1017.68 1017.91 1018.17 1018.47 1018.79 1019.12 1019.45 1019.76 1020.02 1020.21 1020.33 1020.37 1020.35 1020.29 1020.20 1020.12 1020.06 1020.03 1020.05 1020.10 1020.17 1020.25 1020.31 1020.34 1020.33 1020.27 1020.16 1020.02 1019.83 1019.63 1019.43 1019.23 1019.04 1018.88 1018.75 1018.64 1018.57 1018.51 1018.48 1018.48
1017.06 1017.28 1017.51 1017.77 1018.05 1018.35 1018.67 1019.01 1019.36 1019.70 1020.01 1020.27 1020.47 1020.61 1020.67 1020.66 1020.60 1020.50 1020.40 1020.31 1020.26 1020.24 1020.25 1020.30 1020.36 1020.42 1020.44 1020.43 1020.37 1020.25 1020.09 1019.88 1019.65 1019.40 1019.16 1018.93 1018.73 1018.57 1018.43 1018.33 1018.26 1018.22 1018.20
1017.06 1017.30 1017.57 1017.87 1018.18 1018.50 1018.84 1019.17 1019.51 1019.84 1020.14 1020.40 1020.62 1020.77 1020.86 1020.88 1020.84 1020.75 1020.64 1020.54 1020.44 1020.38 1020.36 1020.37 1020.40 1020.43 1020.46 1020.44 1020.39 1020.27 1020.11 1019.90 1019.65 1019.39 1019.12 1018.86 1018.63 1018.42 1018.25 1018.11 1018.01 1017.94 1017.90
1017.03 1017.31 1017.61 1017.93 1018.27 1018.60 1018.93 1019.26 1019.57 1019.88 1020.16 1020.43 1020.66 1020.84 1020.97 1021.03 1021.02 1020.96 1020.86 1020.74 1020.62 1020.51 1020.44 1020.40 1020.39 1020.40 1020.40 1020.39 1020.34 1020.24 1020.09 1019.89 1019.65 1019.39 1019.11 1018.83 1018.57 1018.32 1018.10 1017.92 1017.76 1017.64 1017.56
1016.96 1017.27 1017.60 1017.94 1018.29 1018.62 1018.94 1019.25 1019.54 1019.82 1020.10 1020.36 1020.61 1020.83 1021.00 1021.12 1021.16 1021.13 1021.05 1020.93 1020.78 1020.64 1020.51 1020.42 1020.36 1020.32 1020.30 1020.28 1020.23 1020.15 1020.03 1019.86 1019.64 1019.39 1019.11 1018.82 1018.53 1018.24 1017.97 1017.71 1017.49 1017.30 1017.15
1016.81 1017.15 1017.50 1017.86 1018.22 1018.55 1018.86 1019.15 1019.42 1019.68 1019.95 1020.22 1020.50 1020.75 1020.98 1021.15 1021.24 1021.26 1021.20 1021.08 1020.92 1020.74 1020.56 1020.41 1020.29 1020.21 1020.16 1020.12 1020.08 1020.01 1019.91 1019.77 1019.59 1019.35 1019.08 1018.78 1018.46 1018.12 1017.78 1017.45 1017.14 1016.87 1016.65
1016.59 1016.94 1017.31 1017.69 1018.05 1018.38 1018.68 1018.95 1019.21 1019.46 1019.73 1020.01 1020.30 1020.60 1020.87 1021.09 1021.24 1021.30 1021.27 1021.16 1020.98 1020.78 1020.56 1020.35 1020.19 1020.06 1019.97 1019.91 1019.85 1019.79 1019.72 1019.60 1019.44 1019.23 1018.96 1018.65 1018.30 1017.91 1017.50 1017.08 1016.68 1016.32 1016.03
1016.30 1016.67 1017.05 1017.43 1017.79 1018.12 1018.41 1018.67 1018.92 1019.17 1019.43 1019.72 1020.03 1020.35 1020.66 1020.91 1021.11 1021.20 1021.20 1021.10 1020.93 1020.71 1020.46 1020.22 1020.01 1019.84 1019.71 1019.62 1019.56 1019.50 1019.43 1019.32 1019.18 1018.97 1018.71 1018.38 1017.99 1017.55 1017.07 1016.58 1016.10 1015.66 1015.30
1015.97 1016.34 1016.72 1017.10 1017.46 1017.79 1018.07 1018.33 1018.57 1018.81 1019.07 1019.35 1019.67 1019.99 1020.31 1020.60 1020.81 1020.94 1020.96 1020.88 1020.71 1020.49 1020.24 1019.98 1019.74 1019.54 1019.39 1019.27 1019.19 1019.12 1019.04 1018.94 1018.79 1018.59 1018.31 1017.96 1017.54 1017.05 1016.51 1015.95 1015.40 1014.90 1014.48
1015.63 1016.00 1016.37 1016.74 1017.10 1017.41 1017.69 1017.94 1018.17 1018.40 1018.64 1018.91 1019.21 1019.53 1019.84 1020.12 1020.35 1020.48 1020.52 1020.46 1020.32 1020.12 1019.87 1019.62 1019.38 1019.18 1019.01 1018.88 1018.77 1018.68 1018.59 1018.47 1018.31 1018.09 1017.79 1017.42 1016.96 1016.43 1015.84 1015.23 1014.63 1014.09 1013.64
1015.31 1015.66 1016.03 1016.38 1016.72 1017.03 1017.30 1017.54 1017.75 1017.96 1018.18 1018.43 1018.70 1018.98 1019.27 1019.52 1019.73 1019.87 1019.92 1019.88 1019.77 1019.60 1019.39 1019.16 1018.95 1018.75 1018.59 1018.46 1018.35 1018.24 1018.12 1017.98 1017.80 1017.55 1017.22 1016.81 1016.32 1015.75 1015.13 1014.49 1013.86 1013.29 1012.83
1015.00 1015.35 1015.70 1016.04 1016.36 1016.65 1016.91 1017.14 1017.33 1017.52 1017.72 1017.92 1018.15 1018.39 1018.63 1018.86 1019.04 1019.16 1019.21 1019.19 1019.11 1018.98 1018.82 1018.64 1018.47 1018.31 1018.17 1018.05 1017.94 1017.82 1017.69 1017.52 1017.31 1017.03 1016.67 1016.23 1015.70 1015.11 1014.46 1013.80 1013.15 1012.57 1012.10
1014.72 1015.05 1015.39 1015.72 1016.03 1016.31 1016.56 1016.77 1016.95 1017.12 1017.29 1017.46 1017.64 1017.83 1018.02 1018.19 1018.34 1018.43 1018.48 1018.47 1018.42 1018.33 1018.22 1018.10 1017.98 1017.87 1017.77 1017.67 1017.58 1017.47 1017.33 1017.14 1016.90 1016.59 1016.21 1015.74 1015.19 1014.57 1013.91 1013.23 1012.57 1011.98 1011.50
1014.44 1014.77 1015.10 1015.42 1015.73 1016.01 1016.25 1016.46 1016.64 1016.79 1016.94 1017.08 1017.22 1017.36 1017.49 1017.62 1017.71 1017.77 1017.80 1017.79 1017.75 1017.69 1017.62 1017.55 1017.48 1017.43 1017.38 1017.32 1017.26 1017.16 1017.03 1016.85 1016.60 1016.28 1015.87 1015.39 1014.82 1014.19 1013.51 1012.82 1012.15 1011.54 1011.05
1014.15 1014.48 1014.82 1015.14 1015.46 1015.74 1016.00 1016.21 1016.39 1016.55 1016.68 1016.80 1016.91 1017.01 1017.10 1017.17 1017.21 1017.23 1017.22 1017.18 1017.13 1017.08 1017.03 1016.99 1016.97 1016.96 1016.96 1016.95 1016.93 1016.87 1016.77 1016.61 1016.37 1016.06 1015.66 1015.17 1014.60 1013.97 1013.28 1012.58 1011.89 1011.26 1010.74
1013.83 1014.18 1014.53 1014.88 1015.21 1015.52 1015.79 1016.03 1016.23 1016.39 1016.53 1016.64 1016.73 1016.80 1016.84 1016.86 1016.85 1016.81 1016.75 1016.67 1016.58 1016.51 1016.45 1016.42 1016.42 1016.44 1016.47 1016.51 1016.54 1016.53 1016.48 1016.36 1016.17 1015.89 1015.52 1015.06 1014.51 1013.89 1013.21 1012.50 1011.80 1011.14 1010.58
1013.50 1013.87 1014.24 1014.62 1014.99 1015.33 1015.63 1015.90 1016.12 1016.31 1016.46 1016.57 1016.65 1016.70 1016.71 1016.67 1016.61 1016.50 1016.36 1016.22 1016.07 1015.94 1015.84 1015.78 1015.77 1015.80 1015.86 1015.94 1016.01 1016.07 1016.08 1016.03 1015.91 1015.70 1015.39 1014.99 1014.49 1013.90 1013.25 1012.56 1011.86 1011.18 1010.58
1013.16 1013.55 1013.96 1014.38 1014.78 1015.16 1015.51 1015.81 1016.06 1016.27 1016.44 1016.56 1016.64 1016.66 1016.64 1016.56 1016.42 1016.24 1016.03 1015.79 1015.56 1015.35 1015.18 1015.07 1015.01 1015.02 1015.09 1015.19 1015.31 1015.42 1015.51 1015.55 1015.52 1015.41 1015.20 1014.88 1014.47 1013.96 1013.37 1012.71 1012.03 1011.37 1010.75
1012.84 1013.26 1013.71 1014.16 1014.61 1015.03 1015.41 1015.74 1016.02 1016.26 1016.44 1016.56 1016.63 1016.64 1016.58 1016.45 1016.26 1016.00 1015.69 1015.36 1015.03 1014.72 1014.46 1014.27 1014.15 1014.12 1014.16 1014.27 1014.42 1014.59 1014.75 1014.89 1014.96 1014.97 1014.87 1014.68 1014.39 1013.99 1013.49 1012.92 1012.31 1011.68 1011.07
1012.58 1013.02 1013.50 1013.98 1014.46 1014.91 1015.32 1015.68 1015.99 1016.23 1016.42 1016.55 1016.60 1016.59 1016.49 1016.32 1016.06 1015.73 1015.34 1014.91 1014.48 1014.07 1013.71 1013.43 1013.23 1013.14 1013.14 1013.23 1013.39 1013.60 1013.83 1014.04 1014.23 1014.35 1014.39 1014.34 1014.19 1013.93 1013.57 1013.13 1012.62 1012.07 1011.53
1012.39 1012.84 1013.34 1013.85 1014.36 1014.83 1015.26 1015.63 1015.94 1016.19 1016.37 1016.48 1016.52 1016.48 1016.35 1016.14 1015.83 1015.44 1014.98 1014.47 1013.95 1013.45 1013.00 1012.62 1012.35 1012.18 1012.13 1012.18 1012.32 1012.54 1012.80 1013.08 1013.34 1013.57 1013.74 1013.84 1013.84 1013.74 1013.54 1013.25 1012.89 1012.47 1012.04
1012.29 1012.75 1013.25 1013.78 1014.29 1014.77 1015.20 1015.57 1015.87 1016.11 1016.27 1016.37 1016.39 1016.32 1016.17 1015.92 1015.58 1015.14 1014.63 1014.08 1013.50 1012.93 1012.41 1011.95 1011.60 1011.35 1011.23 1011.23 1011.33 1011.52 1011.77 1012.07 1012.38 1012.69 1012.96 1013.17 1013.31 1013.37 1013.35 1013.23 1013.03 1012.78 1012.49
Thickness
5702 5702 5702 5703 5703 5704 5704 5704 5704 5704 5705 5705 5706 5706 5707 5707 5708 5709 5710 5712 5714 5715 5716 5717 5718 5718 5718 5718 5718 5717 5716 5716 5715 5715 5715 5716 5716 5717 5717 5718 5718 5718 5718
5697 5697 5697 5697 5698 5698 5699 5699 5699 5698 5698 5699 5699 5700 5700 5701 5702 5703 5704 5705 5707 5709 5710 5712 5713 5713 5713 5713 5713 5712 5712 5712 5711 5711 5710 5711 5711 5712 5713 5714 5714 5714 5714
5692 5692 5692 5691 5692 5693 5693 5693 5693 5693 5693 5693 5692 5693 5694 5694 5695 5696 5698 5699 5700 5702 5704 5706 5707 5708 5708 5708 5708 5707 5707 5707 5706 5706 5706 5706 5706 5706 5707 5708 5709 5709 5709
5688 5687 5687 5686 5687 5688 5688 5688 5687 5687 5686 5685 5685 5686 5687 5688 5689 5690 5691 5692 5693 5695 5697 5699 5700 5702 5703 5703 5703 5702 5702 5702 5702 5701 5701 5701 5701 5701 5702 5702 5703 5703 5704
5683 5682 5681 5681 5681 5682 5682 5682 5681 5681 5679 5679 5679 5679 5680 5681 5682 5683 5684 5685 5687 5688 5690 5692 5694 5695 5697 5697 5697 5697 5697 5697 5697 5696 5696 5696 5696 5696 5697 5697 5698 5698 5699
5678 5677 5676 5675 5675 5675 5675 5675 5675 5674 5674 5674 5674 5673 5673 5674 5675 5676 5677 5678 5680 5682 5683 5685 5687 5689 5690 5690 5691 5691 5691 5692 5692 5691 5691 5691 5691 5692 5692 5692 5693 5693 5693
5672 5671 5670 5669 5669 5669 5669 5669 5669 5668 5666 5667 5667 5665 5666 5668 5669 5669 5670 5672 5673 5675 5676 5678 5680 5681 5682 5683 5684 5684 5685 5686 5686 5686 5686 5686 5686 5687 5687 5687 5687 5688 5688
5666 5666 5665 5664 5663 5663 5662 5662 5663 5661 5660 5661 5659 5657 5655 5658 5660 5662 5663 5664 5665 5667 5669 5671 5672 5673 5674 5676 5677 5678 5679 5680 5681 5681 5681 5681 5681 5682 5682 5682 5683 5683 5683
5662 5661 5660 5658 5657 5657 5656 5656 5656 5656 5654 5654 5654 5653 5650 5648 5649 5652 5654 5656 5658 5660 5661 5663 5665 5666 5667 5668 5670 5671 5672 5674 5675 5675 5676 5676 5677 5677 5677 5678 5678 5678 5679
5657 5656 5655 5653 5652 5651 5651 5651 5651 5651 5650 5648 5648 5648 5647 5646 5643 5642 5646 5648 5650 5652 5654 5656 5657 5659 5660 5662 5663 5664 5666 5667 5668 5669 5670 5671 5672 5672 5672 5673 5673 5673 5674
5652 5651 5650 5648 5647 5646 5646 5646 5646 5646 5645 5644 5642 5641 5641 5640 5639 5637 5637 5639 5642 5645 5646 5648 5650 5652 5654 5655 5656 5658 5659 5660 5662 5663 5665 5666 5667 5667 5667 5668 5668 5668 5669
5647 5646 5645 5644 5643 5642 5641 5641 5641 5641 5640 5639 5638 5637 5636 5635 5634 5633 5631 5631 5634 5637 5640 5642 5643 5645 5647 5648 5649 5651 5652 5654 5655 5657 5658 5659 5660 5661 5662 5663 5663 5663 5664
5641 5641 5640 5639 5638 5638 5637 5637 5636 5635 5634 5634 5633 5633 5633 5632 5631 5630 5628 5626 5627 5630 5632 5635 5637 5638 5640 5641 5643 5645 5646 5647 5648 5650 5651 5653 5654 5655 5657 5657 5658 5658 5659
5639 5638 5636 5635 5635 5634 5633 5632 5631 5629 5629 5628 5628 5628 5627 5628 5627 5627 5625 5623 5621 5622 5624 5627 5630 5631 5633 5635 5637 5638 5639 5640 5642 5644 5645 5647 5648 5649 5651 5651 5652 5652 5653
5636 5634 5632 5631 5630 5629 5628 5627 5626 5624 5623 5623 5622 5622 5622 5622 5623 5622 5622 5621 5618 5617 5618 5621 5622 5625 5626 5628 5630 5631 5633 5634 5636 5638 5639 5641 5642 5644 5644 5645 5646 5647 5648
5632 5630 5628 5627 5626 5624 5623 5622 5621 5619 5618 5617 5617 5616 5616 5617 5617 5617 5617 5616 5615 5614 5612 5614 5616 5618 5620 5622 5624 5625 5627 5628 5630 5632 5633 5635 5636 5637 5638 5639 5640 5641 5642
5627 5625 5624 5622 5620 5619 5618 5617 5615 5614 5613 5611 5611 5611 5610 5611 5610 5610 5610 5610 5609 5608 5607 5607 5608 5611 5613 5615 5617 5620 5621 5622 5624 5626 5627 5629 5631 5632 5632 5633 5633 5634 5635
5623 5621 5619 5617 5615 5613 5612 5611 5610 5608 5607 5606 5605 5605 5604 5605 5604 5604 5603 5603 5603 5603 5602 5601 5602 5604 5606 5609 5610 5612 5614 5616 5617 5619 5621 5623 5624 5625 5625 5626 5627 5627 5628
5618 5615 5614 5612 5610 5608 5607 5606 5604 5603 5601 5600 5600 5599 5599 5598 5598 5597 5597 5597 5596 5597 5596 5596 5596 5597 5599 5601 5602 5604 5606 5607 5610 5612 5613 5615 5617 5618 5618 5619 5619 5620 5620
5612 5610 5608 5607 5605 5603 5602 5600 5599 5597 5595 5595 5595 5594 5594 5593 5593 5593 5592 5591 5590 5590 5589 5589 5589 5590 5591 5593 5594 5595 5597 5599 5601 5604 5606 5607 5609 5610 5611 5612 5613 5612 5613
5607 5605 5602 5601 5599 5598 5597 5595 5594 5592 5590 5589 5589 5589 5589 5589 5589 5588 5588 5586 5585 5583 5582 5582 5581 5582 5583 5584 5585 5586 5588 5589 5592 5595 5596 5599 5601 5602 5603 5604 5604 5605 5605
5600 5598 5596 5595 5593 5593 5593 5592 5589 5587 5585 5584 5583 5582 5582 5583 5583 5583 5583 5582 5581 5578 5577 5575 5574 5575 5576 5577 5577 5579 5578 5579 5582 5585 5587 5589 5592 5593 5594 5596 5596 5597 5598
5594 5591 5590 5588 5587 5587 5588 5587 5585 5582 5579 5577 5576 5575 5576 5576 5576 5575 5575 5575 5574 5573 5573 5571 5569 5569 5569 5570 5570 5570 5571 5572 5573 5576 5577 5580 5582 5584 5586 5588 5589 5590 5591
5587 5585 5583 5582 5580 5580 5581 5580 5579 5576 5573 5571 5570 5569 5568 5568 5568 5567 5566 5565 5565 5564 5565 5564 5563 5564 5564 5564 5564 5564 5564 5563 5564 5566 5568 5570 5573 5575 5578 5579 5581 5582 5583
5581 5579 5577 5575 5574 5573 5574 5574 5572 5568 5566 5564 5563 5562 5561 5561 5561 5561 5558 5557 5556 5556 5557 5557 5556 5557 5557 5558 5557 5555 5554 5554 5555 5557 5558 5560 5563 5565 5568 5570 5572 5573 5574
5574 5572 5570 5568 5567 5567 5568 5568 5566 5562 5559 5557 5556 5555 5554 5554 5554 5553 5550 5549 5547 5547 5547 5548 5547 5547 5547 5547 5548 5547 5546 5545 5546 5547 5549 5551 5552 5554 5557 5560 5561 5563 5565